Content
SEND FEEDBACK

Daily
Averages
Monthly
Summary
Brazil

CUIABA, MATO GROSSO


Home > South America > Brazil > Mato Grosso
Elevation: 623 feet     Latitude: 15 38S     Longitude: 056 06W

WEATHER
 
SELECT A DAY
Number of Records: 167,676;   Date Range: 6/30/96 - 7/23/14
 
SHARE

PRINT THIS DATA

[ ← Previous Day ]
WEATHER ALMANAC - MAY 5, 2013
[ Next Day → ]
[ °C ]   °F
Weather ElementAverageHighLow
Temperature78.5 °F92 °F (2:00 pm)68 °F (4:00 am)
Dewpoint64.8 °F69.8 °F (6:00 pm)57.2 °F (2:00 pm)
Humidity65.4 %88 % (4:00 am)22 % (2:00 pm)
Barometer29.93 in30.04 in (8:00 pm)29.84 in (2:00 pm)
Wind Speed5.9 mph17.3 mph (6:00 pm)
Weather ElementAverage
Visibility7.9 mi
Wind DirectionSW (224.4 °)

Weather ElementTotal
Precipitation---
Cooling Degree Days15 (Base 65)
Growing Degree Days30 (Base 50)
Averaged from 27 records on May 5, 2013
WEATHER CONDITIONS BREAKOUT
WIND DIRECTION BREAKOUT
WEATHER BY HOUR - MAY 5, 2013
[ °C ]   °F
Local TimeTemperatureDewpointHumidityBarometerVisibilityWind DirectionWind SpeedGust SpeedPrecipitationEventsConditions
1:00 AM71.6 °F64.4 °F78 %29.89 inCalmClear
2:00 AM70.0 °F64.0 °F77 %29.87 in12.0 miNorth (350°)2.3 mph
2:00 AM69.8 °F64.4 °F83 %29.89 inNorth (350°)2.3 mphClear
3:00 AM69.8 °F64.4 °F83 %29.86 inCalmClear
4:00 AM68.0 °F64.4 °F88 %29.86 inNW (320°)2.3 mphClear
5:00 AM68.0 °F64.4 °F88 %29.89 inNW (320°)3.5 mphClear
6:00 AM68.0 °F64.4 °F88 %29.92 inNNW (340°)4.6 mphClear
7:00 AM71.6 °F64.4 °F78 %29.95 inNW (320°)5.8 mphClear
8:00 AM76.0 °F66.0 °F63 %29.95 in12.0 miNW (310°)8.1 mph
8:00 AM75.2 °F66.2 °F73 %29.95 inNW (310°)8.1 mphClear
9:00 AM82.4 °F64.4 °F54 %29.98 inNW (320°)3.5 mphClear
10:00 AM86.0 °F64.4 °F48 %29.98 inNNW (340°)8.1 mphClear
11:00 AM87.8 °F60.8 °F40 %29.98 inNNW (340°)6.9 mphClear
12:00 PM91.4 °F62.6 °F38 %29.95 in6.2 miWNW (300°)3.5 mphScattered Clouds
1:00 PM91.4 °F60.8 °F36 %29.89 inNNE (20°)6.9 mphClear
2:00 PM92.0 °F58.0 °F22 %29.84 in12.0 miNNW (340°)2.3 mphPartly Cloudy
2:00 PM91.4 °F57.2 °F31 %29.86 in6.2 miNNW (340°)2.3 mphScattered Clouds
3:00 PM91.4 °F62.6 °F38 %29.86 in6.2 miEast (100°)5.8 mphScattered Clouds
4:00 PM89.6 °F64.4 °F43 %29.86 in6.2 miSSE (150°)3.5 mphMostly Cloudy
5:00 PM84.2 °F68.0 °F58 %29.89 in6.2 miSouth (170°)9.2 mphMostly Cloudy
6:00 PM78.8 °F69.8 °F74 %29.95 in6.2 miSSW (200°)17.3 mphMostly Cloudy
7:00 PM77.0 °F68.0 °F74 %29.98 in6.2 miSouth (190°)13.8 mphMostly Cloudy
8:00 PM76.0 °F69.0 °F73 %30.02 in12.0 miSSE (150°)9.2 mphMostly Cloudy
8:00 PM75.2 °F69.8 °F83 %30.04 in6.2 miSSE (150°)9.2 mphMostly Cloudy
9:00 PM73.4 °F68.0 °F83 %30.04 in6.2 miSouth (170°)11.5 mphMostly Cloudy
10:00 PM71.6 °F68.0 °F88 %30.04 in6.2 miSE (130°)6.9 mphMostly Cloudy
11:00 PM71.6 °F66.2 °F83 %30.01 inNNE (30°)1.2 mphClear
Hourly data recorded from SBCY, located miles away from Cuiaba, Mato Grosso







STORIES FROM OUR PARTNERS